www.pogodaiklimat.ru

Погода и климат >> Архив погоды >> Россия >> Красноярский край >> Курейка


ПОГОДА в Курейке

  • Прогноз погоды в Курейке
  • Монитор погоды в Курейке

АРХИВ ПОГОДЫ в Курейке

Время (UTC), дата Ветер
(напр.,м/с)
 
Видим.   Явления Облачность Т
(С)
Тd
(С)
f
(%)
Тe
(С)
Тes
(С)
Комфортность P
(гПа)
Po
(гПа)
Тmin
(С)
Tmax
(С)
R
(мм)
R24
(мм)
S
(см)
18 9.06 СЗ 1 50 км 3/0
[Ci fib]
+4.2 -1.0 69 +3 +3 1003.5 1000.0
21 9.06 С 2 50 км 3/0
[Ci fib]
+3.5 -0.9 73 +1 +1 1002.2 998.7
00 10.06 СЗ 3 50 км 6/4 600 м
[Sc Ci fib]
+3.6 -0.7 73 0 +1 1000.5 997.1 +3.5
03 10.06 С 1 50 км 10/10 600 м
[Sc]
+5.2 -0.2 68 +4 +4 1000.7 997.3
06 10.06 З 2 50 км 10/0 2000 м
[As op]
+6.8 0.0 62 +5 +5 999.4 996.0
09 10.06 С 2 10 км слаб. ливневой дождь 10/10 600 м
[Cb cap]
+4.9 +3.2 89 +2 +2 999.4 996.0
12 10.06 С 3 10 км слаб. ливневой дождь 10/10 600 м
[Cb cap]
+5.2 +4.5 95 +2 +2 999.5 996.1 +6.8 3
15 10.06 С 3 50 км {ливн. осадки} 10/10 600 м
[Cb cap]
+4.0 +0.9 80 0 0 1002.1 998.7
18 10.06 С 4 50 км {ливн. осадки} 10/10 600 м
[Sc]
+3.6 -0.1 77 -1 -1 1002.6 999.2
21 10.06 СЗ 5
{10}
50 км 9/9 600 м
[Cb cap]
+2.0 -0.3 85 -4 -4 1006.2 1002.7
00 11.06 СЗ 5
{11}
50 км {ливн. осадки} 10/10 600 м
[Cb cap]
+1.8 -0.7 83 -4 -4 1006.1 1002.6 +1.8 0.3
03 11.06 СЗ 5
{10}
50 км 9/9 600 м
[Cb cap]
+2.8 -4.4 59 -2 -2 1008.8 1005.3
06 11.06 СЗ 4 50 км 10/10 600 м
[Sc]
+3.2 -5.5 53 -1 -1 1010.2 1006.7
09 11.06 СЗ 4 50 км 10/10 600 м
[Sc]
+4.0 -4.2 55 0 0 1010.2 1006.7
12 11.06 С 2 50 км 10/10 600 м
[Sc]
+4.8 -3.9 53 +3 +3 1010.3 1005.9 +1.8
15 11.06 штиль 0 50 км 10/10 600 м
[Sc]
+3.8 -3.7 58 +3 +3 1011.5 1008.0
18 11.06 В 3 50 км 8/8 600 м
[Sc]
+2.6 -3.3 65 -1 -1 1010.2 1006.7
21 11.06 В 4 50 км 9/9 600 м
[Sc]
+2.4 -4.3 61 -2 -2 1008.8 1005.3
00 12.06 ЮВ 4 50 км 10/10 600 м
[Sc]
+3.2 -3.2 63 -1 -1 1007.4 1004.0 +2.4
03 12.06 В 4 50 км 10/10 600 м
[Sc]
+4.7 -2.0 62 +1 +1 1006.2 1002.7
06 12.06 ЮВ 4 50 км 10/10 600 м
[Sc]
+8.4 -0.1 55 +6 +6 1004.7 1001.3
09 12.06 ЮВ 3 50 км 10/10 600 м
[Sc]
+10.0 -0.2 49 +8 +8 1003.4 1000.0
12 12.06 ЮВ 3 50 км 10/10 600 м
[Cb cap]
+11.2 +0.9 49 +10 +10 1001.8 998.4 +11.4
15 12.06 ЮВ 2 50 км 10/10 600 м
[Cb cap]
+9.6 +2.7 62 +8 +8 1002.1 998.7
18 12.06 ЮВ 4 50 км 8/6 600 м
[Sc Ci fib]
+8.4 +2.6 67 +5 +5 1000.7 997.3
21 12.06 ЮВ 3 50 км 10/10 600 м
[Sc]
+8.6 +3.5 70 +6 +6 993.5 995.2
00 13.06 ЮВ 3 50 км 10/10 600 м
[Sc]
+8.7 +4.4 74 +6 +6 996.8 993.5 +8.4
03 13.06 В 3 50 км 10/10 600 м
[Sc]
+10.2 +3.9 65 +8 +8 994.0 990.7
06 13.06 В 4 50 км 10/10 600 м
[Cb cap]
+11.0 +4.7 65 +9 +9 991.3 988.0
09 13.06 ЮВ 4 50 км {ливн. осадки} 10/10 600 м
[Cb cap]
+9.6 +7.0 84 +7 +7 988.6 985.3
12 13.06 Ю 2 50 км {ливн. осадки} 9/9 600 м
[Sc]
+11.4 +8.6 83 +10 +11 987.8 984.5 +11.6 0.3
15 13.06 ЮВ 4 50 км 8/5 600 м
[Sc Ci fib]
+13.8 +8.6 71 +12 +12 987.3 984.0
21 13.06 Ю 3 10 км слаб. ливневой дождь 10/10 600 м
[Cb cap]
+10.6 +9.8 95 +8 +8 982.1 978.8
00 14.06 ЮЗ 5
{10}
50 км {ливн. осадки} 10/10 600 м
[Cb cap]
+9.6 +7.9 89 +6 +6 983.2 979.9 +9.6 10
03 14.06 ЮЗ 6-10
{12}
50 км 9/9 600 м
[Cb cap]
+4.6 +1.0 77 -1 -0 988.0 984.6
06 14.06 Ю 4
{13}
50 км 9/9 600 м
[Cb cap]
+5.4 +0.8 72 +2 +2 992.7 989.3
09 14.06 ЮЗ 6-10
{13}
50 км 8/8 600 м
[Cb cap]
+5.8 +0.8 70 +1 +2 995.4 992.0
12 14.06 Ю 5
{11}
50 км 9/9 600 м
[Cb cap]
+7.2 +1.3 66 +4 +4 995.5 992.2 +7.4
15 14.06 ЮЗ 5
{10}
50 км 9/9 600 м
[Cb cap]
+6.9 -1.3 56 +3 +3 996.7 993.3
18 14.06 Ю 4-10
{10}
50 км 8/8 600 м
[Cb cap]
+5.2 -3.3 54 +2 +2 995.3 991.9
21 14.06 Ю 5
{11}
50 км 8/6 600 м
[Cb cap Ci fib]
+4.8 -1.5 64 0 0 994.5 991.1
00 15.06 ЮЗ 6-10
{14}
50 км 10/10 600 м
[Cb cap]
+5.2 0.0 69 0 0 993.9 990.5 +4.8
03 15.06 ЮЗ 5
{12}
10 км слаб. ливневой дождь 10/10 600 м
[Cb cap]
+2.9 -0.1 81 -2 -2 996.3 992.9
06 15.06 ЮЗ 6-10
{12}
50 км {ливн. осадки} 10/10 600 м
[Cb cap]
+5.2 -0.6 66 +1 +1 1000.7 997.3
09 15.06 Ю 4
{10}
50 км 10/10 600 м
[Cb cap]
+6.4 -1.0 59 +3 +3 1004.7 1001.3
12 15.06 ЮЗ 3 50 км 9/9 600 м
[Cb cap]
+8.0 +1.7 64 +6 +6 1005.4 1002.0 +8.2 0.0
15 15.06 Ю 2 50 км 9/9 600 м
[Cb cap]
+8.0 0.0 57 +6 +6 1008.7 1005.3
18 15.06 Ю 2 50 км 9/9 600 м
[Cb cap]
+6.4 +0.7 67 +4 +4 1010.1 1006.7
21 15.06 ЮВ 2 50 км 7 баллов +5.2 +1.1 75 +3 +3 1011.5 1008.0
00 16.06 В 4 50 км 8/5 600 м
[Sc Ci fib]
+7.2 +4.4 82 +4 +5 1011.0 1007.6 +5.2 0.0
03 16.06 ЮВ 4 50 км 9 баллов +9.0 +2.6 64 +6 +7 1012.7 1009.3
06 16.06 Ю 2 50 км 9 баллов +9.9 +4.5 69 +9 +10 1011.4 1008.0
09 16.06 ЮВ 2 50 км 7 баллов +11.5 +3.5 58 +11 +13 1010.1 1006.7
12 16.06 штиль 0 50 км 9/9 600 м
[Cb cap]
+12.6 +2.3 49 +12 +13 1007.4 1004.1 +12.8 0.0
15 16.06 штиль 0 50 км 6 баллов +12.4 +1.7 48 +12 +12 1007.4 1004.0

 

Местоположение метеостанции Курейка (Красноярский край, Россия): широта 66.47 долгота 87.22 высота над уровнем моря 28 м.

В архиве по умолчанию представлена погода в Курейке за последнюю неделю. Архивные данные за месяц целиком и за предыдущие месяцы, начиная с января 2011 года, Вы можете получить, выбрав интересующий диапазон дат из раскрывающегося списка и нажав кнопку "Ввод!".


*Определитесь, кто Вы:
робот инопланетянин человек

Внимание! Время в таблицах - всемирное. Для получения местного времени необходимо прибавить поправку, которая равна 7 ч.

Смотрите также архив погоды в соседних городах и на ближайших метеорологических станциях:

Погода в Светлогорске (Красноярский край, Россия) (75 км)
Погода в Туруханске (Красноярский край, Россия) (83 км)
Погода в Игарке (Красноярский край, Россия) (115 км)
Погода в Горбиачине (Красноярский край, Россия) (115 км)
Погода в Советской Речке (Красноярский край, Россия) (156 км)
Погода в Большом Пороге (Эвенкия, Россия) (158 км)
Погода в Снежногорске (Красноярский край, Россия) (183 км)
Погода в Красноселькупске (Ямало-Ненецкий АО, Россия) (231 км)
Погода в Потапово (Красноярский край, Россия) (248 км)
Погода в Верещагино (Красноярский край, Россия) (249 км)

Пояснения к столбцам:

Ветер - указаны скорость ветра в м/с - средняя за 10 мин, порывы в срок и между сроками (в фигурных скобках) и направление, откуда дует ветер: С - северный, СВ - северо-восточный, В - восточный, ЮВ - юго-восточный, Ю - южный, ЮЗ - юго-западный, З - западный, СЗ - северо-западный.
Видимость - горизонтальная дальность видимости в метрах или километрах. При видимости от 1 до 10 км при отсутствии осадков обычно наблюдается дымка, при ухудшении видимости до 1 км и менее - туман. В сухую погоду видимость может ухудшаться дымом, пылью или мглою.
Явления - указаны атмосферные явления, наблюдавшиеся в срок или в последний час перед сроком; фигурными скобками обозначены явления, наблюдавшиеся между сроками (за 1-3 часа до срока); квадратными скобками обозначены град или гололедные отложения с указанием их диаметра в мм.
Облачность - указаны через наклонную черту общая и нижняя облачность в баллах и высота нижней границы облаков в метрах; квадратными скобками обозначены формы облаков: Ci - перистые, Cs - перисто-слоистые, Cc - перисто-кучевые, Ac - высококучевые, As - высокослоистые, Sc - слоисто-кучевые, Ns - слоисто-дождевые, Cu - кучевые, Cb - кучево-дождевые. Подробнее классификацию облаков см. в Атласе облаков (PDF).
T - Температура воздуха - температура, измеренная на высоте 2 м над землей.
Td - Температура точки росы - температура, при понижении до которой содержащийся в воздухе водяной пар достигнет насыщения.
f - Относительная влажность воздуха - влажноcть воздуха, измеренная на высоте 2 м над землей.
Te - Эффективная температура - температура, которую ощущает одетый по сезону человек в тени. Характеристика душности погоды. При расчете учитывается влияние влажности воздуха и скорости ветра на теплоощущения человека.
Tes - Эффективная температура на солнце - температура, которую ощущает человек, с поправкой на солнечный нагрев. Характеристика знойности погоды. Зависит от высоты солнца над горизонтом, облачности и скорости ветра. Ночью, в пасмурную погоду, а также при ветре 12 м/с и более поправка равна нулю.
P - Атмосферное давление - приведенное к уровню моря атмосферное давление.
Po - Атмосферное давление - измеренное на уровне метеостанции атмосферное давление.
Tmin - Минимальная температура - минимум температуры воздуха на высоте 2 м над землей.
Tmax - Максимальная температура - максимум температуры воздуха на высоте 2 м над землей.
R - Количество осадков - Количество выпавших осадков за период времени, мм. При наведении курсора мыши на число - период времени, за который выпало указанное количество осадков.
R24 - Количество осадков - Количество выпавших осадков за 24 часа, мм.
S - Снежный покров - Высота снежного покрова, см. При наведении курсора мыши на число - состояние снежного покрова и степень покрытия местности в баллах.